Location: Étouvelles
(49.5207°N, 3.5808°E)
Time: 23:23:07
(UTC+00:00)

Cosmos 540 Rocket - Pass Details

Date: 30 September 2023
Orbit: 737 x 752 km, 74.1° (Epoch: 03 December)

Event Time Altitude Azimuth Distance (km) Brightness Sun altitude
Rises 20:51:57 0° 336° (NNW) 3,185 7.6 -31.9°
Reaches altitude 10° 20:54:19 10° 338° (NNW) 2,259 6.6 -32.2°
Enters shadow 20:57:21 37° 342° (NNW) 1,153 4.7 -32.6°
